Wind_Speed
42 43 43 43 44 44 45 46 46 46 46 46 46 44 44 43 43 43 43 43 44 43 43 43 43 43 43 43 43 43 43 44 45 44 45 45 45 46 45 45 45 44 45
43 43 44 44 45 45 45 45 46 46 46 46 46 44 44 44 44 44 43 43 43 43 43 43 43 43 44 44 43 43 43 44 44 44 44 44 45 45 44 44 45 45 46
41 42 43 44 44 44 45 46 46 46 45 46 45 45 45 45 45 44 43 42 42 42 43 43 43 43 42 43 43 43 44 45 44 43 43 44 44 44 43 44 45 45 46
40 41 43 44 44 44 44 46 46 46 46 46 46 46 45 45 44 44 43 42 42 42 42 42 42 42 42 42 42 43 44 44 45 45 45 44 43 43 43 44 45 45 46
40 41 43 43 44 45 45 45 45 46 46 48 47 46 45 44 43 43 42 41 41 41 41 42 42 42 41 41 42 44 44 44 44 45 45 45 44 43 43 43 44 44 45
41 42 43 43 43 44 44 44 44 44 45 45 44 44 44 43 42 42 41 41 41 41 42 42 42 41 41 42 43 44 43 43 43 44 44 44 43 42 41 42 43 43 44
43 43 43 44 43 43 43 43 42 43 43 43 43 43 42 42 42 42 42 42 43 42 42 42 41 41 41 42 42 42 42 42 43 43 42 41 41 41 41 42 42 43 43
44 44 44 44 44 45 44 43 43 42 42 41 41 41 40 41 41 41 42 43 43 43 42 41 41 41 42 42 41 42 42 41 41 41 41 41 41 42 42 42 43 42 42
43 43 43 43 43 44 44 42 42 41 41 40 39 39 39 40 41 41 42 43 42 41 41 40 41 41 41 41 41 41 42 42 41 40 40 41 41 41 42 42 42 42 42
40 40 41 41 41 42 42 41 40 40 39 38 37 37 38 38 39 39 40 40 40 40 39 40 40 41 41 41 41 41 41 40 40 40 40 40 41 41 42 42 42 42 42
38 38 38 39 39 40 40 40 40 39 39 38 36 36 37 37 37 38 38 38 38 38 39 39 40 40 40 40 40 41 40 40 39 39 39 40 40 41 41 41 41 41 41
36 37 36 37 37 38 39 39 38 37 37 37 37 36 36 37 37 36 36 37 37 37 38 39 40 40 40 39 39 40 39 38 38 38 39 39 39 39 40 40 40 40 39
35 35 35 36 35 36 37 38 37 37 37 36 36 36 36 36 36 36 36 36 36 37 37 38 38 38 38 38 38 38 37 37 37 37 37 38 38 38 37 37 37 37 37
34 34 34 34 34 35 35 36 36 36 36 36 35 36 36 36 36 36 36 36 36 37 37 36 36 36 36 36 36 36 36 35 34 34 35 35 35 35 34 34 34 34 33
33 34 34 34 34 34 34 34 34 34 34 34 35 35 35 34 35 35 35 35 34 34 34 34 35 35 35 35 34 34 33 32 32 32 32 32 32 32 32 31 31 30 29
31 32 33 33 33 33 33 33 33 33 34 34 34 34 33 34 34 34 33 33 33 33 33 33 33 33 33 32 31 31 30 30 30 30 29 29 29 28 28 28 28 28 27
30 30 30 31 32 32 32 31 31 32 33 32 33 33 33 33 33 33 33 32 31 31 31 31 31 31 30 29 29 28 27 27 27 27 27 26 26 26 26 26 25 25 24
28 29 28 28 28 29 30 30 31 31 31 31 31 31 32 32 32 32 31 31 30 29 29 29 29 28 27 27 27 26 25 25 25 25 26 25 25 25 24 24 24 23 23
27 27 27 26 26 26 26 28 29 29 30 30 29 30 30 30 30 30 29 28 28 27 27 28 27 27 25 25 24 24 24 23 24 24 24 23 23 23 22 22 22 22 21
25 26 26 26 26 26 26 27 27 27 28 28 29 29 29 29 28 28 27 27 26 26 27 26 25 25 23 22 22 22 22 22 22 22 22 21 20 20 21 21 20 20 19
26 26 25 25 25 26 26 26 26 26 26 26 27 27 28 28 27 26 25 25 25 25 24 24 23 22 21 21 21 21 20 20 21 20 20 19 19 20 20 19 18 18 17
26 26 25 25 24 24 25 25 25 25 25 25 25 25 25 25 24 24 24 24 24 23 23 22 21 20 20 19 19 19 19 19 19 19 18 18 18 19 18 17 16 16 15
25 26 25 24 23 23 23 23 23 23 23 22 22 22 22 22 23 23 22 22 21 21 21 21 20 20 19 19 19 19 19 19 18 18 17 17 17 17 16 14 14 14 13
23 23 23 22 22 22 23 22 22 22 21 21 21 21 21 21 21 20 20 19 19 19 19 19 19 19 19 18 18 18 18 18 17 16 16 16 16 15 14 12 12 12 11
21 20 20 20 21 21 21 21 21 21 21 20 20 19 19 18 18 18 17 17 17 17 18 17 17 17 17 17 17 16 16 16 15 15 15 14 14 13 12 11 11 11 10
21 20 20 20 20 20 20 20 20 20 19 19 18 18 17 17 17 16 16 16 16 16 16 16 16 16 16 16 15 15 15 15 14 14 13 13 12 11 11 10 10 10 10
Wind_Direction
252 253 254 255 257 260 262 264 264 264 264 265 266 269 270 272 275 276 277 278 278 279 280 281 281 282 283 284 286 288 289 290 290 289 289 290 291 291 290 291 291 290 291
254 255 255 256 258 260 263 264 265 265 265 266 267 268 269 270 273 275 277 278 279 279 279 281 282 283 284 283 285 288 289 291 292 292 291 290 292 293 291 291 291 292 292
256 256 257 258 259 261 263 263 263 264 265 265 266 268 268 270 272 274 275 277 279 280 280 282 283 283 284 285 287 289 291 292 293 293 292 292 294 295 292 292 292 292 293
258 257 259 260 260 261 262 263 264 264 265 265 266 268 269 270 271 272 274 275 277 278 279 280 281 284 286 286 287 289 291 293 293 293 293 294 296 296 295 294 293 293 293
259 259 260 261 261 262 263 264 264 265 264 265 266 267 268 269 270 272 273 275 277 278 279 280 282 284 287 287 288 290 292 293 293 293 294 294 295 296 296 295 294 294 293
261 262 262 262 262 263 264 264 264 265 265 265 265 266 267 268 272 273 274 276 278 279 280 281 283 284 286 289 290 291 292 292 292 294 295 295 296 296 296 297 297 296 295
264 264 265 263 263 264 265 265 266 266 265 264 264 265 267 269 270 273 276 276 278 280 281 281 282 284 286 289 291 291 292 292 293 295 295 296 296 297 297 299 299 299 298
264 265 265 264 264 265 265 266 267 267 266 266 265 267 268 270 271 273 275 277 278 279 280 281 282 285 286 288 290 291 292 293 294 295 295 295 297 298 298 299 299 299 298
266 265 265 266 265 265 264 266 267 267 267 267 268 268 270 271 272 274 276 277 278 279 280 281 283 286 287 288 289 291 293 294 295 295 295 296 297 298 298 299 300 299 299
267 265 265 266 265 265 264 265 266 266 266 267 267 269 272 273 274 275 277 277 278 279 279 281 283 286 286 287 288 290 292 294 294 294 295 296 297 298 299 299 299 299 299
268 266 267 267 265 264 264 264 265 266 266 266 268 269 271 273 274 276 277 278 277 277 279 281 282 284 286 286 287 288 291 292 292 293 294 295 296 297 298 299 300 300 301
270 268 267 266 265 264 263 263 263 265 265 266 268 268 269 272 274 276 276 277 276 278 279 281 282 283 285 285 285 287 289 289 291 292 293 295 296 297 298 299 300 301 302
270 268 266 264 264 263 263 264 265 265 266 267 268 268 269 272 273 274 276 276 277 278 279 281 282 283 284 284 285 287 289 289 291 292 293 295 297 298 299 300 300 301 302
269 266 265 264 264 263 264 265 265 265 266 267 267 269 270 272 273 274 276 277 277 278 279 281 282 284 284 284 285 287 289 290 291 293 294 296 297 299 300 301 302 304 304
270 267 266 265 265 265 265 265 264 264 266 267 268 269 270 271 272 274 276 276 277 279 280 282 284 284 284 285 286 288 288 289 292 294 296 296 298 299 301 302 304 306 307
272 270 268 267 267 266 265 263 263 264 265 266 268 269 270 271 273 275 276 276 278 279 281 283 286 287 286 286 287 288 289 290 292 295 297 298 299 300 301 303 305 307 309
272 271 270 268 267 265 264 263 263 265 266 268 269 270 271 272 273 275 276 277 279 280 282 285 288 288 286 285 287 288 291 292 293 294 296 298 300 302 304 305 308 310 310
270 270 271 270 267 266 266 265 267 268 268 269 269 270 271 273 274 276 277 279 280 280 283 287 289 288 286 285 286 287 290 293 295 295 296 298 301 303 305 306 309 310 310
268 268 270 269 268 269 270 269 269 269 271 271 271 271 272 273 275 276 277 278 280 281 284 287 289 287 284 284 285 287 291 293 295 297 299 300 301 304 306 308 309 310 311
270 269 269 269 268 271 272 271 271 273 273 272 272 272 272 273 273 274 276 277 279 280 283 285 286 285 282 282 285 288 290 293 295 297 300 301 302 305 308 310 311 312 313
269 270 271 272 272 272 272 271 273 275 274 273 274 273 273 273 272 272 274 275 276 279 281 283 284 282 279 282 285 288 290 292 294 296 299 301 303 306 309 310 312 313 314
269 271 273 274 273 272 272 272 273 274 273 273 274 273 272 271 272 271 273 274 276 277 278 280 281 280 279 283 286 286 288 290 292 294 296 299 303 306 308 308 311 313 315
270 272 274 274 272 271 271 271 273 274 273 273 273 274 272 271 271 270 271 272 273 275 276 278 279 279 280 283 284 284 285 288 291 292 295 298 303 307 307 307 310 314 316
269 270 271 271 270 270 269 269 269 269 271 273 275 276 274 272 271 270 271 273 273 275 276 275 275 276 278 280 281 282 284 288 290 292 295 297 301 305 305 306 309 314 316
267 267 268 268 268 268 268 269 269 267 270 272 273 274 274 272 269 268 269 271 275 276 276 274 273 274 275 278 280 281 284 286 288 291 294 297 300 302 304 305 308 311 314
263 264 266 267 267 267 268 268 267 267 268 269 269 270 270 271 269 269 270 271 274 275 275 274 276 276 276 277 278 280 282 284 287 289 290 293 294 296 301 304 307 310 312
Height
5667 5669 5671 5673 5675 5677 5678 5679 5680 5680 5681 5683 5684 5684 5685 5685 5685 5685 5684 5683 5683 5681 5680 5678 5677 5676 5674 5672 5670 5668 5665 5663 5661 5660 5656 5653 5650 5647 5644 5641 5638 5634 5631
5657 5659 5661 5662 5664 5666 5668 5669 5669 5670 5671 5672 5673 5673 5674 5674 5674 5674 5674 5673 5672 5671 5670 5668 5667 5665 5663 5662 5659 5657 5655 5652 5650 5648 5645 5642 5639 5635 5633 5629 5626 5623 5619
5647 5649 5650 5651 5654 5656 5657 5658 5659 5659 5660 5661 5661 5662 5663 5663 5663 5663 5663 5662 5661 5660 5659 5658 5656 5655 5653 5651 5649 5647 5644 5641 5638 5636 5634 5631 5627 5624 5621 5618 5614 5611 5607
5636 5638 5640 5641 5643 5645 5646 5647 5648 5648 5649 5650 5650 5651 5652 5652 5652 5652 5652 5651 5650 5649 5648 5646 5645 5644 5642 5640 5638 5636 5633 5630 5627 5625 5623 5620 5616 5613 5609 5606 5604 5599 5595
5626 5628 5630 5631 5633 5634 5635 5636 5637 5637 5638 5638 5639 5640 5640 5641 5641 5641 5641 5640 5639 5638 5637 5635 5634 5633 5631 5629 5627 5624 5622 5619 5616 5614 5611 5609 5606 5602 5598 5595 5591 5588 5584
5617 5618 5619 5620 5622 5623 5624 5625 5625 5626 5626 5626 5627 5628 5629 5630 5630 5630 5629 5629 5628 5627 5626 5624 5623 5622 5620 5618 5616 5613 5610 5608 5605 5602 5600 5597 5594 5591 5587 5583 5579 5576 5573
5606 5607 5608 5609 5611 5612 5613 5614 5614 5614 5615 5615 5616 5617 5618 5619 5619 5619 5618 5618 5617 5616 5614 5613 5612 5611 5609 5607 5605 5602 5599 5596 5594 5591 5588 5585 5582 5580 5576 5572 5568 5563 5560
5595 5596 5596 5598 5599 5600 5601 5602 5602 5603 5604 5605 5605 5606 5607 5607 5608 5608 5607 5607 5606 5605 5604 5603 5602 5601 5599 5596 5594 5592 5589 5586 5583 5580 5577 5574 5571 5567 5564 5561 5557 5553 5549
5584 5584 5585 5586 5587 5589 5590 5590 5591 5592 5593 5594 5594 5595 5596 5596 5596 5596 5596 5596 5595 5594 5593 5592 5591 5590 5588 5586 5584 5581 5579 5576 5572 5570 5567 5563 5560 5557 5553 5549 5546 5542 5539
5573 5573 5574 5574 5576 5577 5578 5579 5580 5581 5583 5583 5584 5584 5585 5586 5586 5586 5585 5585 5585 5584 5583 5582 5580 5579 5577 5574 5573 5570 5568 5565 5562 5560 5556 5553 5550 5546 5543 5539 5534 5530 5527
5562 5563 5563 5564 5565 5566 5567 5568 5570 5571 5572 5573 5574 5575 5575 5576 5576 5575 5575 5574 5574 5573 5572 5571 5570 5568 5566 5564 5562 5560 5558 5555 5552 5549 5547 5544 5540 5537 5533 5529 5524 5520 5516
5552 5553 5553 5553 5554 5555 5556 5558 5559 5560 5562 5563 5564 5565 5565 5566 5566 5565 5565 5564 5563 5562 5561 5560 5558 5557 5555 5553 5551 5550 5547 5544 5542 5539 5537 5533 5530 5527 5523 5519 5515 5510 5506
5542 5542 5542 5543 5544 5545 5546 5548 5549 5550 5551 5552 5553 5554 5555 5555 5555 5555 5554 5553 5553 5552 5550 5549 5548 5546 5545 5543 5541 5539 5537 5534 5532 5529 5527 5524 5520 5517 5513 5510 5506 5502 5497
5533 5532 5533 5533 5534 5535 5536 5538 5539 5540 5541 5542 5543 5544 5545 5545 5545 5545 5544 5543 5542 5541 5540 5539 5538 5536 5534 5533 5531 5529 5527 5524 5522 5520 5517 5514 5510 5507 5504 5501 5498 5494 5490
5523 5523 5523 5524 5525 5526 5527 5528 5529 5530 5531 5533 5534 5534 5535 5535 5535 5535 5534 5533 5532 5531 5530 5529 5528 5527 5525 5523 5521 5519 5517 5515 5513 5511 5508 5505 5502 5499 5496 5493 5490 5486 5483
5514 5514 5514 5515 5515 5516 5517 5519 5519 5521 5522 5522 5523 5524 5524 5525 5525 5524 5524 5523 5522 5521 5520 5520 5518 5517 5515 5514 5512 5510 5508 5507 5505 5503 5500 5498 5495 5492 5489 5486 5483 5480 5477
5506 5506 5506 5506 5506 5507 5508 5509 5511 5512 5512 5512 5513 5513 5514 5514 5514 5514 5514 5513 5513 5512 5511 5510 5509 5507 5506 5505 5503 5502 5500 5499 5497 5495 5493 5491 5488 5486 5483 5480 5477 5475 5471
5497 5497 5497 5497 5498 5499 5499 5500 5501 5502 5503 5503 5504 5504 5504 5504 5504 5504 5504 5504 5504 5503 5502 5501 5500 5499 5498 5497 5496 5494 5493 5491 5490 5488 5486 5484 5482 5480 5477 5475 5472 5469 5466
5490 5490 5489 5489 5490 5490 5491 5491 5492 5492 5493 5493 5494 5495 5495 5495 5495 5496 5495 5495 5495 5495 5494 5493 5492 5491 5490 5489 5488 5487 5486 5485 5483 5482 5480 5478 5476 5474 5472 5470 5467 5464 5462
5483 5483 5482 5483 5483 5483 5483 5483 5483 5484 5484 5484 5485 5486 5486 5486 5487 5487 5487 5487 5487 5487 5486 5485 5485 5484 5483 5482 5482 5481 5480 5479 5478 5476 5474 5473 5471 5469 5468 5465 5463 5460 5458
5476 5476 5476 5475 5475 5475 5476 5476 5476 5476 5476 5476 5476 5477 5477 5478 5478 5479 5479 5479 5479 5479 5479 5478 5477 5477 5476 5476 5475 5475 5474 5473 5472 5471 5469 5468 5467 5465 5463 5461 5459 5457 5454
5469 5469 5469 5469 5469 5469 5469 5469 5469 5469 5468 5468 5469 5469 5469 5470 5470 5471 5471 5471 5472 5471 5471 5471 5471 5470 5470 5470 5470 5469 5469 5468 5467 5466 5465 5464 5462 5460 5459 5457 5455 5453 5451
5462 5462 5462 5462 5462 5462 5462 5462 5462 5462 5462 5462 5462 5462 5462 5462 5463 5463 5464 5464 5464 5465 5465 5465 5465 5464 5464 5464 5464 5464 5464 5463 5462 5461 5460 5459 5458 5456 5455 5454 5452 5450 5449
5455 5455 5455 5455 5455 5455 5455 5455 5455 5455 5455 5455 5455 5455 5455 5456 5456 5457 5458 5458 5458 5458 5458 5458 5458 5459 5459 5459 5459 5459 5458 5458 5457 5457 5456 5455 5454 5453 5451 5450 5449 5448 5446
5448 5449 5449 5449 5449 5449 5449 5449 5449 5449 5449 5449 5449 5449 5449 5450 5450 5451 5452 5452 5453 5453 5453 5453 5453 5453 5454 5454 5454 5454 5454 5453 5453 5453 5452 5451 5451 5449 5448 5447 5446 5445 5444
5442 5442 5442 5442 5442 5442 5442 5442 5442 5443 5443 5443 5443 5444 5444 5445 5445 5446 5446 5447 5447 5448 5448 5448 5448 5449 5449 5449 5449 5449 5449 5449 5449 5449 5448 5448 5447 5447 5446 5445 5444 5443 5442